Location: Overspoor
(51.4747°N, 5.6641°E)
Time: 15:07:02
(UTC+02:00)

VELOX 1 - Visible Passes

Search period start: 25 June 2022 00:00
Search period end: 05 July 2022 00:00
Orbit: 625 x 638 km, 98.4° (Epoch: 24 June)

Date Brightness Start Highest point End Pass type
(mag) Time Alt. Az. Time Alt. Az. Time Alt. Az.
25 Jun ? 04:22:35 10° E 04:25:13 16° NE 04:27:52 10° NNE visible
29 Jun ? 04:10:52 10° ENE 04:12:45 13° NE 04:14:37 10° NNE visible
30 Jun ? 04:30:26 10° E 04:33:22 18° ENE 04:36:20 10° NNE visible
04 Jul ? 04:18:29 10° E 04:20:48 14° NE 04:23:09 10° NNE visible
